Location: Chippewa Lake
(41.0698°N, 81.9010°W)
Time: 02:12:24
(UTC+00:00)

Cosmos 2208 Rocket - Pass Details

Date: 09 May 2021
Orbit: 753 x 806 km, 74.0° (Epoch: 24 June)

Event Time Altitude Azimuth Distance (km) Brightness Sun altitude
Rises 01:20:58 0° 338° (NNW) 3,308 8.3 -8.9°
Reaches altitude 10° 01:23:22 10° 337° (NNW) 2,380 7.5 -9.3°
Maximum altitude 01:28:47 74° 254° (WSW) 837 4.3 -10.1°
Drops below altitude 10° 01:34:12 10° 169° (S) 2,379 6.1 -11.0°
Enters shadow 01:35:22 - 168° (SSE) 2,827 6.5 -11.2°
